Tracking 18815 objects as of 19-October-2017
HD Live streaming from Space Station
objects crossing your sky now

GORIZONT 30

Track GORIZONT 30 now!
GORIZONT 30 is classified as:


NORAD ID: 23108
Int'l Code: 1994-030A
Perigee: 35,766.0 km
Apogee: 35,822.4 km
Inclination: 14.7 °
Period: 1,436.1 minutes
Semi major axis: 42165 km
RCS: 12.5892 m2 (large)
Launch date: May 20, 1994
Source: Commonwealth of Independent States (former USSR) (CIS)
Launch site: TYURATAM MISSILE AND SPACE COMPLEX (TTMTR)
aabbcc
Your satellite tracking list
Your tracking list is empty





NASA's NSSDC Master Catalog

Two Line Element Set (TLE):
1 23108U 94030A   17291.47410580  .00000008  00000-0  00000+0 0  9996
2 23108  14.7316  15.2131 0006690 229.2507 132.8228  1.00270042 85767
Source of the keplerian elements: AFSPC